Etusivu
METAR-TAF:

METAR-TAF

Lentoasemat :

Grand Rapids/Itasca County Airport (Gordon Newstrom Field)

Grand Rapids, Minnesota, Yhdysvallat

Leveyspiiri: 47-13N, Pituuspiiri: 093-31W, korkeus merenpinnasta: 413 m

Tämänhetkinen sää

Tämä raportti tehtiin 54 minuuttia sitten, kello 23.56 UTC
Tuuli 4 kn etelästä/lounaasta
Lämpötila -9°C
Kosteus 52%
Ilmanpaine 1025 hPa
Näkyvyys: 16.1 km
selkeää

METAR: KGPZ 192356Z AUTO 21004KT 10SM CLR M09/M17 A3028 RMK AO2 SLP295 T10941167 11056 21094 56020 FZRANO

Aika: 18:50 (00:50 UTC)


TAF: puuttuu

Säähavainnot ja -ennusteet yli 4000 lentoasemalta (METAR- ja TAF-raportit).

Käytössä olevat sääasemat on merkitty karttaan keltaisilla ja punaisilla pisteillä.

Aseta hiiri pisteen päälle nähdäksesi sääaseman nimen.

Klikkaa sitten nähdäksesi säähavainnot ja -ennusteet.

Kartan vaihtaminen: klikkaa mustalla rastilla varustettuja vihreitä pisteitä, niin voit zoomata sisään; viivalla varustettua vihreää pistettä, niin voit zoomata ulos tai vihreitä nuolia, niin pääset viereisille kartoille.


METAR-TAF: